Location: Caltech
(34.1382°N, 118.1253°W)
Time: 04:54:21
(UTC-07:00)

Gbstr 26 Del rocket - Visible Passes

Search period start: 26 August 2016 00:00
Search period end: 05 September 2016 00:00
Orbit: 494 x 1266 km, 51.8° (Epoch: 24 August)

Date Brightness Start Highest point End Pass type
(mag) Time Alt. Az. Time Alt. Az. Time Alt. Az.
26 Aug 7.0 04:50:48 10° ESE 04:51:39 10° ESE 04:52:30 10° ESE visible
27 Aug 6.6 04:43:46 10° SE 04:47:14 14° ESE 04:50:53 10° E visible
28 Aug 6.4 04:38:15 10° SSE 04:42:51 18° ESE 04:47:48 10° ENE visible
29 Aug 6.1 04:33:10 10° S 04:38:28 23° ESE 04:44:18 10° ENE visible
30 Aug 5.8 04:28:54 12° S 04:34:07 29° ESE 04:40:36 10° ENE visible
31 Aug 5.4 04:25:35 19° S 04:29:47 36° SE 04:36:46 10° ENE visible
01 Sep 5.0 04:22:11 28° S 04:25:28 45° SE 04:32:51 10° ENE visible
02 Sep 4.7 04:18:41 38° S 04:21:13 56° SE 04:28:51 10° NE visible
02 Sep 5.0 06:02:04 10° WSW 06:08:58 44° NNW 06:16:39 10° NE visible
03 Sep 6.6 02:32:31 11° ESE 02:32:31 11° ESE 02:33:30 10° E visible
03 Sep 4.4 04:15:07 50° SSW 04:17:00 69° SE 04:24:47 10° NE visible
03 Sep 5.2 05:58:17 10° W 06:05:01 39° NNW 06:12:28 10° NE visible
04 Sep 6.4 02:28:53 14° E 02:28:53 14° E 02:30:43 10° E visible
04 Sep 4.1 04:11:29 62° SSW 04:12:48 83° SE 04:20:42 10° NE visible
04 Sep 5.4 05:54:33 10° W 06:01:05 34° NNW 06:08:18 10° NE visible
